ARIANE 2 DEB, 28570

Orbit data source: Space-Track

ARIANE 2 DEB, 28570 is space debris in HEO originally from a launch on Fri, 27 Jan 1989 UTC launched from the French Guiana (FRGUI). Debris objects in space refer to the collection of defunct objects orbiting the Earth. Examples of debris include non-operational satellites, rocket bodies, and fragments generated from explosions, collisions, or faulty payload assembly.

Loading next visibility...
Identifier
28570, 1989-006AM
Orbit
HEO
Country
Flag of FRFR
Related business
Manufacturer
EADS/LV
Mission
Spacecraft
Bus & Motor
Unknown
Mass
Unknown
Launch date (UTC)
1989-01-27 (37 years ago)
Launch vehicle
Unknown
Launch site
French Guiana (FRGUI)
Object type
Payload
Rocket body
Debris
Shape & HBR
Unknown
Radar Cross Section
Medium (>0.1 m² and <1 m²)

Expand to show TLE details & history
Last TLE update: 3 days ago

TLE from 3 days ago
0 ARIANE 2 DEB
1 28570U 89006AM  25257.63384513 -.00000044  00000-0  44792-2 0  9996
2 28570   7.1340 251.9938 7088385 109.0559  11.5714  2.29667676182993
Epoch: 2025-09-14T15:12Z
TLE epoch observation values (Epoch: 2025-09-14T15:12:44.219Z)
Latitude
-0.49206°
Longitude
-146.35967°
Altitude
3,765.271 km
Speed
7.884 km/s
True Right ascension
05h 02m 41s
True Declination
0° 29' 24"
Sunlit
Object was in daylight at epoch
Visualization orbit readout
Latitude
Unknown
Longitude
Unknown
Altitude
Unknown
Speed
Unknown
Apparent Right ascension
Unknown
Apparent Declination
Unknown
Sunlit
N/A
Visualization observer readout
Local Sidereal Time
17:00:11
Azimuth
Unknown
Elevation
Unknown
Doppler factor
Unknown
Orbital elements
Apogee altitude
35,097.554 km
Perigee altitude
688.724 km
Semi-major axis
24,271.276 km
Eccentricity
0.70884
Inclination
7.134°
RAAN
251.9938°
Arg. of periapsis
109.0559°
True anomaly
74.20942°
Mean anomaly
11.5714°
Eccentric anomaly
34.68036°
Mean motion
0.57399 °/min
Orbital period
627.19 mins
BSTAR
0.0044792
Loading maneuver chart data...
Computing Atmospheric mass density...
Loading historical data...
Loading historical data...
Loading historical data...
Loading historical data...
Loading historical data...
Loading historical data...
Loading historical data...

Documentation

Showing up to 5 results
|